| time (UTC) | temp C | wind direction | speed KPH | gust KPH | rain 1hr cm | rain 24hr cm | rain mn cm | humidity % | barometer mb |
| 20260505221053 | 25 | 138 | 4.8 | 14.5 | 0.00 | 0.00 | 0.00 | 41 | 1013.4 |
| 20260505220550 | 25 | 119 | 4.8 | 4.8 | 0.00 | 0.00 | 0.00 | 40 | 1013.6 |
| 20260505220048 | 25 | 145 | 3.2 | 11.3 | 0.00 | 0.00 | 0.00 | 40 | 1013.5 |
| 20260505215546 | 26 | 139 | 1.6 | 6.4 | 0.00 | 0.00 | 0.00 | 41 | 1013.3 |
| 20260505215044 | 26 | 147 | 0.0 | 1.6 | 0.00 | 0.00 | 0.00 | 42 | 1013.4 |
| 20260505214542 | 26 | 153 | 1.6 | 4.8 | 0.00 | 0.00 | 0.00 | 38 | 1013.5 |
| 20260505214038 | 26 | 118 | 3.2 | 9.7 | 0.00 | 0.00 | 0.00 | 41 | 1013.3 |
| 20260505213536 | 26 | 131 | 0.0 | 3.2 | 0.00 | 0.00 | 0.00 | 40 | 1013.4 |
| 20260505213032 | 26 | 166 | 3.2 | 9.7 | 0.00 | 0.00 | 0.00 | 40 | 1013.3 |
| 20260505212528 | 26 | 121 | 1.6 | 9.7 | 0.00 | 0.00 | 0.00 | 41 | 1013.4 |
| 20260505212026 | 26 | 116 | 1.6 | 14.5 | 0.00 | 0.00 | 0.00 | 41 | 1013.3 |
| 20260505211523 | 26 | 87 | 9.7 | 12.9 | 0.00 | 0.00 | 0.00 | 38 | 1013.3 |
| 20260505211019 | 26 | 169 | 1.6 | 9.7 | 0.00 | 0.00 | 0.00 | 39 | 1013.5 |
| 20260505210516 | 26 | 137 | 4.8 | 6.4 | 0.00 | 0.00 | 0.00 | 40 | 1013.4 |
| 20260505210014 | 26 | 84 | 3.2 | 4.8 | 0.00 | 0.00 | 0.00 | 39 | 1013.6 |
| 20260505205512 | 26 | 140 | 0.0 | 14.5 | 0.00 | 0.00 | 0.00 | 39 | 1013.5 |
| 20260505205008 | 25 | 132 | 1.6 | 6.4 | 0.00 | 0.00 | 0.00 | 41 | 1013.6 |
| 20260505204506 | 26 | 133 | 6.4 | 11.3 | 0.00 | 0.00 | 0.00 | 37 | 1013.5 |
| 20260505204003 | 26 | 129 | 6.4 | 11.3 | 0.00 | 0.00 | 0.00 | 40 | 1013.6 |
| 20260505203459 | 26 | 148 | 4.8 | 9.7 | 0.00 | 0.00 | 0.00 | 37 | 1013.6 |
| 20260505202956 | 27 | 116 | 6.4 | 9.7 | 0.00 | 0.00 | 0.00 | 38 | 1013.7 |
| 20260505202453 | 27 | 99 | 1.6 | 9.7 | 0.00 | 0.00 | 0.00 | 39 | 1013.6 |
| 20260505201948 | 26 | 161 | 1.6 | 9.7 | 0.00 | 0.00 | 0.00 | 39 | 1013.5 |
| 20260505201446 | 26 | 138 | 6.4 | 9.7 | 0.00 | 0.00 | 0.00 | 40 | 1013.8 |
| 20260505200943 | 26 | 157 | 1.6 | 6.4 | 0.00 | 0.00 | 0.00 | 40 | 1013.8 |
| 20260505200441 | 26 | 139 | 4.8 | 6.4 | 0.00 | 0.00 | 0.00 | 38 | 1013.8 |
| 20260505195936 | 26 | 107 | 3.2 | 11.3 | 0.00 | 0.00 | 0.00 | 40 | 1014.0 |
| 20260505195434 | 26 | 79 | 6.4 | 11.3 | 0.00 | 0.00 | 0.00 | 38 | 1013.9 |
| 20260505194931 | 27 | 135 | 3.2 | 6.4 | 0.00 | 0.00 | 0.00 | 38 | 1013.8 |
| 20260505194428 | 26 | 112 | 1.6 | 6.4 | 0.00 | 0.00 | 0.00 | 41 | 1014.3 |
| 20260505193928 | 26 | 150 | 4.8 | 11.3 | 0.00 | 0.00 | 0.00 | 39 | 1014.2 |
| 20260505193426 | 26 | 144 | 1.6 | 6.4 | 0.00 | 0.00 | 0.00 | 38 | 1014.2 |
| 20260505192924 | 26 | 140 | 3.2 | 4.8 | 0.00 | 0.00 | 0.00 | 38 | 1014.3 |
| 20260505192422 | 26 | 166 | 1.6 | 6.4 | 0.00 | 0.00 | 0.00 | 38 | 1014.2 |
| 20260505191919 | 26 | 123 | 6.4 | 14.5 | 0.00 | 0.00 | 0.00 | 36 | 1014.3 |
| 20260505191418 | 26 | 29 | 8.0 | 12.9 | 0.00 | 0.00 | 0.00 | 34 | 1014.8 |
| 20260505190914 | 26 | 147 | 0.0 | 1.6 | 0.00 | 0.00 | 0.00 | 39 | 1014.5 |
| 20260505190409 | 26 | 106 | 3.2 | 6.4 | 0.00 | 0.00 | 0.00 | 36 | 1014.9 |
| 20260505185905 | 26 | 133 | 4.8 | 9.7 | 0.00 | 0.00 | 0.00 | 39 | 1015.0 |
| 20260505185402 | 26 | 117 | 6.4 | 9.7 | 0.00 | 0.00 | 0.00 | 38 | 1014.9 |
| 20260505184858 | 26 | 138 | 3.2 | 3.2 | 0.00 | 0.00 | 0.00 | 40 | 1015.1 |
| 20260505184355 | 26 | 125 | 6.4 | 6.4 | 0.00 | 0.00 | 0.00 | 39 | 1015.1 |
| 20260505183852 | 26 | 150 | 3.2 | 12.9 | 0.00 | 0.00 | 0.00 | 39 | 1015.2 |
| 20260505183349 | 26 | 119 | 0.0 | 3.2 | 0.00 | 0.00 | 0.00 | 40 | 1015.4 |
| 20260505182846 | 26 | 144 | 1.6 | 6.4 | 0.00 | 0.00 | 0.00 | 40 | 1015.5 |
| 20260505182343 | 26 | 68 | 1.6 | 3.2 | 0.00 | 0.00 | 0.00 | 41 | 1015.4 |
| 20260505181839 | 26 | 146 | 1.6 | 1.6 | 0.00 | 0.00 | 0.00 | 47 | 1015.4 |
| 20260505181336 | 26 | 123 | 1.6 | 9.7 | 0.00 | 0.00 | 0.00 | 42 | 1015.6 |
| 20260505180833 | 26 | 160 | 0.0 | 6.4 | 0.00 | 0.00 | 0.00 | 41 | 1015.5 |
| 20260505180330 | 26 | 156 | 1.6 | 4.8 | 0.00 | 0.00 | 0.00 | 39 | 1015.6 |
| 20260505175826 | 27 | 121 | 1.6 | 11.3 | 0.00 | 0.00 | 0.00 | 40 | 1015.3 |
| 20260505175323 | 26 | 177 | 1.6 | 1.6 | 0.00 | 0.00 | 0.00 | 43 | 1015.5 |
| 20260505174819 | 26 | 140 | 1.6 | 1.6 | 0.00 | 0.00 | 0.00 | 41 | 1015.5 |
| 20260505174317 | 26 | 129 | 1.6 | 3.2 | 0.00 | 0.00 | 0.00 | 46 | 1015.5 |
| 20260505173812 | 26 | 146 | 4.8 | 11.3 | 0.00 | 0.00 | 0.00 | 40 | 1015.6 |
| 20260505173309 | 26 | 109 | 3.2 | 9.7 | 0.00 | 0.00 | 0.00 | 39 | 1015.3 |
| 20260505172806 | 26 | 85 | 3.2 | 14.5 | 0.00 | 0.00 | 0.00 | 41 | 1015.8 |
| 20260505172306 | 25 | 168 | 0.0 | 1.6 | 0.00 | 0.00 | 0.00 | 47 | 1015.7 |
| 20260505171758 | 26 | 112 | 4.8 | 9.7 | 0.00 | 0.00 | 0.00 | 42 | 1015.7 |
| 20260505171255 | 25 | 152 | 1.6 | 4.8 | 0.00 | 0.00 | 0.00 | 41 | 1015.6 |
| 20260505170752 | 26 | 99 | 4.8 | 9.7 | 0.00 | 0.00 | 0.00 | 39 | 1015.7 |
| 20260505170249 | 25 | 137 | 4.8 | 6.4 | 0.00 | 0.00 | 0.00 | 44 | 1015.6 |
| 20260505165744 | 25 | 137 | 1.6 | 4.8 | 0.00 | 0.00 | 0.00 | 46 | 1016.1 |
| 20260505165240 | 25 | 136 | 6.4 | 12.9 | 0.00 | 0.00 | 0.00 | 43 | 1015.8 |
| 20260505164736 | 26 | 136 | 4.8 | 4.8 | 0.00 | 0.00 | 0.00 | 42 | 1015.9 |
| 20260505164233 | 25 | 142 | 1.6 | 11.3 | 0.00 | 0.00 | 0.00 | 45 | 1016.2 |
| 20260505163731 | 25 | 138 | 1.6 | 6.4 | 0.00 | 0.00 | 0.00 | 44 | 1016.1 |
| 20260505163230 | 25 | 148 | 0.0 | 6.4 | 0.00 | 0.00 | 0.00 | 44 | 1016.2 |
| 20260505162726 | 25 | 134 | 8.0 | 9.7 | 0.00 | 0.00 | 0.00 | 43 | 1016.3 |
| 20260505162223 | 25 | 90 | 8.0 | 9.7 | 0.00 | 0.00 | 0.00 | 43 | 1016.3 |
| 20260505161720 | 25 | 130 | 3.2 | 6.4 | 0.00 | 0.00 | 0.00 | 46 | 1016.3 |
| 20260505161218 | 25 | 129 | 6.4 | 6.4 | 0.00 | 0.00 | 0.00 | 46 | 1016.3 |
| 20260505160715 | 25 | 152 | 4.8 | 6.4 | 0.00 | 0.00 | 0.00 | 45 | 1016.4 |
| 20260505160213 | 25 | 145 | 1.6 | 1.6 | 0.00 | 0.00 | 0.00 | 44 | 1016.3 |
| 20260505153152 | 24 | 149 | 0.0 | 3.2 | 0.00 | 0.00 | 0.00 | 49 | 1016.8 |
| 20260505152649 | 24 | 94 | 1.6 | 9.7 | 0.00 | 0.00 | 0.00 | 49 | 1016.6 |
| 20260505152144 | 24 | 136 | 1.6 | 1.6 | 0.00 | 0.00 | 0.00 | 50 | 1016.6 |
| 20260505151640 | 23 | 158 | 0.0 | 1.6 | 0.00 | 0.00 | 0.00 | 51 | 1016.8 |
| 20260505151137 | 23 | 117 | 4.8 | 4.8 | 0.00 | 0.00 | 0.00 | 48 | 1016.7 |
| 20260505150633 | 23 | 125 | 6.4 | 9.7 | 0.00 | 0.00 | 0.00 | 47 | 1017.0 |
| 20260505150130 | 23 | 199 | 3.2 | 3.2 | 0.00 | 0.00 | 0.00 | 50 | 1016.9 |
| 20260505140559 | 21 | 68 | 3.2 | 3.2 | 0.00 | 0.00 | 0.00 | 55 | 1016.7 |
| 20260505125013 | 19 | 172 | 4.8 | 6.4 | 0.00 | 0.00 | 0.00 | 61 | 1017.0 |
| 20260505124509 | 18 | 97 | 0.0 | 4.8 | 0.00 | 0.00 | 0.00 | 61 | 1017.0 |
| 20260505124006 | 18 | 71 | 3.2 | 4.8 | 0.00 | 0.00 | 0.00 | 62 | 1017.0 |
| 20260505123502 | 18 | 69 | 1.6 | 3.2 | 0.00 | 0.00 | 0.00 | 62 | 1016.8 |
| 20260505122958 | 17 | 56 | 1.6 | 9.7 | 0.00 | 0.00 | 0.00 | 63 | 1016.8 |
| 20260505122455 | 17 | 137 | 0.0 | 0.0 | 0.00 | 0.00 | 0.00 | 65 | 1016.8 |
| 20260505121952 | 17 | 152 | 1.6 | 4.8 | 0.00 | 0.00 | 0.00 | 66 | 1016.6 |
| 20260505121449 | 17 | 143 | 1.6 | 4.8 | 0.00 | 0.00 | 0.00 | 66 | 1016.9 |
| 20260505120945 | 16 | 130 | 0.0 | 1.6 | 0.00 | 0.00 | 0.00 | 66 | 1016.8 |
| 20260505120442 | 16 | 125 | 0.0 | 0.0 | 0.00 | 0.00 | 0.00 | 69 | 1016.7 |
| 20260505115941 | 16 | 133 | 0.0 | 1.6 | 0.00 | 0.00 | 0.00 | 69 | 1016.8 |
| 20260505115437 | 15 | 100 | 3.2 | 3.2 | 0.00 | 0.00 | 0.00 | 69 | 1016.8 |
| 20260505114936 | 15 | 131 | 0.0 | 1.6 | 0.00 | 0.00 | 0.00 | 73 | 1016.7 |
| 20260505114431 | 14 | 123 | 1.6 | 3.2 | 0.00 | 0.00 | 0.00 | 74 | 1016.6 |
| 20260505113928 | 13 | 113 | 1.6 | 3.2 | 0.00 | 0.00 | 0.00 | 77 | 1016.6 |
| 20260505113425 | 13 | 121 | 0.0 | 0.0 | 0.00 | 0.00 | 0.00 | 80 | 1016.5 |
| 20260505112920 | 12 | 129 | 0.0 | 1.6 | 0.00 | 0.00 | 0.00 | 82 | 1016.5 |
| 20260505112418 | 12 | 137 | 0.0 | 0.0 | 0.00 | 0.00 | 0.00 | 85 | 1016.4 |
| 20260505111914 | 11 | 137 | 0.0 | 0.0 | 0.00 | 0.00 | 0.00 | 89 | 1016.3 |
| 20260505111409 | 11 | 136 | 0.0 | 0.0 | 0.00 | 0.00 | 0.00 | 91 | 1016.5 |
| 20260505110905 | 10 | 136 | 0.0 | 0.0 | 0.00 | 0.00 | 0.00 | 91 | 1016.3 |
| 20260505110402 | 10 | 136 | 0.0 | 0.0 | 0.00 | 0.00 | 0.00 | 89 | 1016.2 |
| 20260505101832 | 10 | 136 | 0.0 | 0.0 | 0.00 | 0.00 | 0.00 | 87 | 1015.6 |
| 20260505101328 | 10 | 136 | 0.0 | 0.0 | 0.00 | 0.00 | 0.00 | 87 | 1015.6 |
| 20260505100824 | 10 | 136 | 0.0 | 0.0 | 0.00 | 0.00 | 0.00 | 87 | 1015.7 |
| 20260505100321 | 10 | 136 | 0.0 | 0.0 | 0.00 | 0.00 | 0.00 | 89 | 1015.5 |
| 20260505095816 | 10 | 136 | 0.0 | 0.0 | 0.00 | 0.00 | 0.00 | 89 | 1015.5 |
| 20260505095314 | 10 | 136 | 0.0 | 0.0 | 0.00 | 0.00 | 0.00 | 89 | 1015.4 |
| 20260505094810 | 10 | 136 | 0.0 | 0.0 | 0.00 | 0.00 | 0.00 | 87 | 1015.0 |
| 20260505094307 | 10 | 136 | 0.0 | 0.0 | 0.00 | 0.00 | 0.00 | 86 | 1015.4 |
| 20260505093803 | 10 | 136 | 0.0 | 0.0 | 0.00 | 0.00 | 0.00 | 86 | 1015.3 |
| 20260505093301 | 10 | 136 | 0.0 | 0.0 | 0.00 | 0.00 | 0.00 | 85 | 1015.4 |
| 20260505092757 | 10 | 136 | 0.0 | 0.0 | 0.00 | 0.00 | 0.00 | 85 | 1015.2 |
| 20260505092256 | 11 | 136 | 0.0 | 0.0 | 0.00 | 0.00 | 0.00 | 84 | 1015.1 |
| 20260505091752 | 11 | 136 | 0.0 | 0.0 | 0.00 | 0.00 | 0.00 | 84 | 1015.3 |
| 20260505091250 | 11 | 136 | 0.0 | 0.0 | 0.00 | 0.00 | 0.00 | 83 | 1015.6 |
| 20260505090748 | 11 | 136 | 0.0 | 0.0 | 0.00 | 0.00 | 0.00 | 83 | 1015.3 |
| 20260505090246 | 11 | 136 | 0.0 | 0.0 | 0.00 | 0.00 | 0.00 | 83 | 1015.2 |
| 20260505085743 | 11 | 136 | 0.0 | 0.0 | 0.00 | 0.00 | 0.00 | 83 | 1015.2 |
| 20260505085241 | 11 | 136 | 0.0 | 0.0 | 0.00 | 0.00 | 0.00 | 83 | 1015.2 |
| 20260505084738 | 11 | 136 | 0.0 | 0.0 | 0.00 | 0.00 | 0.00 | 83 | 1015.1 |
| 20260505084238 | 11 | 136 | 0.0 | 0.0 | 0.00 | 0.00 | 0.00 | 84 | 1015.1 |
| 20260505083734 | 11 | 136 | 0.0 | 0.0 | 0.00 | 0.00 | 0.00 | 84 | 1015.2 |
| 20260505083230 | 11 | 136 | 0.0 | 0.0 | 0.00 | 0.00 | 0.00 | 83 | 1015.1 |
| 20260505082726 | 11 | 136 | 0.0 | 0.0 | 0.00 | 0.00 | 0.00 | 83 | 1015.0 |
| 20260505082224 | 11 | 136 | 0.0 | 0.0 | 0.00 | 0.00 | 0.00 | 80 | 1015.1 |
| 20260505081719 | 12 | 136 | 0.0 | 0.0 | 0.00 | 0.00 | 0.00 | 79 | 1014.8 |
| 20260505081217 | 12 | 136 | 0.0 | 0.0 | 0.00 | 0.00 | 0.00 | 78 | 1015.1 |
| 20260505080714 | 12 | 136 | 0.0 | 0.0 | 0.00 | 0.00 | 0.00 | 78 | 1015.1 |
| 20260505080210 | 12 | 136 | 0.0 | 0.0 | 0.00 | 0.00 | 0.00 | 77 | 1015.0 |
| 20260505075706 | 12 | 136 | 0.0 | 0.0 | 0.00 | 0.00 | 0.00 | 76 | 1015.0 |
| 20260505075203 | 12 | 136 | 0.0 | 0.0 | 0.00 | 0.00 | 0.00 | 76 | 1015.0 |
| 20260505074700 | 12 | 137 | 0.0 | 0.0 | 0.00 | 0.00 | 0.00 | 77 | 1015.0 |
| 20260505074157 | 12 | 137 | 0.0 | 0.0 | 0.00 | 0.00 | 0.00 | 76 | 1014.9 |
| 20260505073654 | 12 | 137 | 0.0 | 0.0 | 0.00 | 0.00 | 0.00 | 77 | 1015.1 |
| 20260505073152 | 12 | 137 | 0.0 | 0.0 | 0.00 | 0.00 | 0.00 | 77 | 1014.8 |
| 20260505072648 | 12 | 137 | 0.0 | 0.0 | 0.00 | 0.00 | 0.00 | 76 | 1015.0 |
| 20260505072145 | 12 | 137 | 0.0 | 0.0 | 0.00 | 0.00 | 0.00 | 76 | 1015.0 |
| 20260505071640 | 13 | 137 | 0.0 | 0.0 | 0.00 | 0.00 | 0.00 | 73 | 1014.8 |
| 20260505071138 | 13 | 137 | 0.0 | 0.0 | 0.00 | 0.00 | 0.00 | 72 | 1014.9 |
| 20260505070635 | 13 | 137 | 0.0 | 0.0 | 0.00 | 0.00 | 0.00 | 72 | 1014.7 |
| 20260505070131 | 13 | 137 | 0.0 | 0.0 | 0.00 | 0.00 | 0.00 | 71 | 1014.7 |
| 20260505065627 | 13 | 137 | 0.0 | 0.0 | 0.00 | 0.00 | 0.00 | 71 | 1014.6 |
| 20260505065124 | 13 | 137 | 0.0 | 0.0 | 0.00 | 0.00 | 0.00 | 71 | 1014.8 |
| 20260505064621 | 13 | 137 | 0.0 | 0.0 | 0.00 | 0.00 | 0.00 | 70 | 1014.7 |
| 20260505064120 | 13 | 136 | 1.6 | 1.6 | 0.00 | 0.00 | 0.00 | 70 | 1014.8 |
| 20260505063617 | 14 | 137 | 0.0 | 0.0 | 0.00 | 0.00 | 0.00 | 69 | 1014.6 |
| 20260505063112 | 14 | 136 | 0.0 | 0.0 | 0.00 | 0.00 | 0.00 | 68 | 1014.7 |
| 20260505062609 | 15 | 137 | 0.0 | 0.0 | 0.00 | 0.00 | 0.00 | 66 | 1014.8 |
| 20260505062106 | 15 | 132 | 0.0 | 0.0 | 0.00 | 0.00 | 0.00 | 66 | 1014.7 |
| 20260505061603 | 15 | 132 | 0.0 | 0.0 | 0.00 | 0.00 | 0.00 | 66 | 1014.9 |
| 20260505061102 | 15 | 135 | 0.0 | 3.2 | 0.00 | 0.00 | 0.00 | 66 | 1014.8 |
| 20260505060559 | 15 | 133 | 0.0 | 0.0 | 0.00 | 0.00 | 0.00 | 66 | 1015.1 |
| 20260505060055 | 15 | 119 | 0.0 | 1.6 | 0.00 | 0.00 | 0.00 | 66 | 1014.8 |
| 20260505055550 | 15 | 114 | 0.0 | 1.6 | 0.00 | 0.00 | 0.00 | 65 | 1014.9 |
| 20260505055048 | 15 | 123 | 0.0 | 0.0 | 0.00 | 0.00 | 0.00 | 64 | 1014.6 |
| 20260505054545 | 15 | 146 | 1.6 | 1.6 | 0.00 | 0.00 | 0.00 | 65 | 1014.8 |
| 20260505054043 | 15 | 130 | 0.0 | 1.6 | 0.00 | 0.00 | 0.00 | 64 | 1014.7 |
| 20260505053539 | 16 | 142 | 0.0 | 3.2 | 0.00 | 0.00 | 0.00 | 65 | 1014.9 |
| 20260505053036 | 16 | 134 | 0.0 | 1.6 | 0.00 | 0.00 | 0.00 | 65 | 1014.9 |
| 20260505052533 | 16 | 131 | 3.2 | 6.4 | 0.00 | 0.00 | 0.00 | 62 | 1015.1 |
| 20260505052031 | 16 | 135 | 1.6 | 1.6 | 0.00 | 0.00 | 0.00 | 64 | 1015.0 |
| 20260505051527 | 16 | 130 | 3.2 | 4.8 | 0.00 | 0.00 | 0.00 | 62 | 1015.1 |
| 20260505051026 | 16 | 138 | 0.0 | 3.2 | 0.00 | 0.00 | 0.00 | 63 | 1015.0 |
| 20260505050524 | 16 | 142 | 0.0 | 0.0 | 0.00 | 0.00 | 0.00 | 63 | 1015.2 |
| 20260505041451 | 16 | 140 | 0.0 | 6.4 | 0.00 | 0.00 | 0.00 | 62 | 1015.1 |
| 20260505040948 | 16 | 134 | 0.0 | 1.6 | 0.00 | 0.00 | 0.00 | 63 | 1015.0 |
| 20260505040446 | 16 | 141 | 1.6 | 1.6 | 0.00 | 0.00 | 0.00 | 62 | 1015.0 |
| 20260505035943 | 16 | 123 | 1.6 | 1.6 | 0.00 | 0.00 | 0.00 | 61 | 1015.2 |
| 20260505035438 | 17 | 119 | 0.0 | 3.2 | 0.00 | 0.00 | 0.00 | 60 | 1015.1 |
| 20260505034936 | 17 | 132 | 0.0 | 1.6 | 0.00 | 0.00 | 0.00 | 60 | 1014.9 |
| 20260505034432 | 17 | 138 | 3.2 | 3.2 | 0.00 | 0.00 | 0.00 | 61 | 1014.9 |
| 20260505033930 | 17 | 135 | 1.6 | 3.2 | 0.00 | 0.00 | 0.00 | 60 | 1014.8 |
| 20260505033426 | 17 | 141 | 3.2 | 11.3 | 0.00 | 0.00 | 0.00 | 59 | 1014.9 |
| 20260505032924 | 17 | 140 | 0.0 | 1.6 | 0.00 | 0.00 | 0.00 | 60 | 1014.9 |
| 20260505032421 | 17 | 129 | 1.6 | 3.2 | 0.00 | 0.00 | 0.00 | 59 | 1014.8 |
| 20260505031918 | 17 | 116 | 1.6 | 6.4 | 0.00 | 0.00 | 0.00 | 59 | 1015.0 |
| 20260505031415 | 17 | 142 | 1.6 | 3.2 | 0.00 | 0.00 | 0.00 | 58 | 1014.9 |
| 20260505030912 | 17 | 123 | 3.2 | 3.2 | 0.00 | 0.00 | 0.00 | 57 | 1014.7 |
| 20260505030407 | 18 | 113 | 1.6 | 3.2 | 0.00 | 0.00 | 0.00 | 58 | 1015.0 |
| 20260505025903 | 18 | 118 | 1.6 | 3.2 | 0.00 | 0.00 | 0.00 | 58 | 1014.8 |
| 20260505025401 | 18 | 132 | 3.2 | 4.8 | 0.00 | 0.00 | 0.00 | 59 | 1014.8 |
| 20260505024900 | 18 | 122 | 0.0 | 6.4 | 0.00 | 0.00 | 0.00 | 57 | 1014.8 |
| 20260505024357 | 18 | 137 | 0.0 | 3.2 | 0.00 | 0.00 | 0.00 | 59 | 1014.8 |
| 20260505023853 | 18 | 95 | 3.2 | 4.8 | 0.00 | 0.00 | 0.00 | 56 | 1014.8 |
| 20260505023350 | 18 | 146 | 3.2 | 4.8 | 0.00 | 0.00 | 0.00 | 57 | 1014.7 |
| 20260505022848 | 18 | 136 | 0.0 | 1.6 | 0.00 | 0.00 | 0.00 | 57 | 1014.8 |
| 20260505022344 | 18 | 79 | 3.2 | 9.7 | 0.00 | 0.00 | 0.00 | 55 | 1014.8 |
| 20260505021842 | 19 | 146 | 3.2 | 4.8 | 0.00 | 0.00 | 0.00 | 56 | 1014.5 |
| 20260505021338 | 19 | 139 | 4.8 | 4.8 | 0.00 | 0.00 | 0.00 | 56 | 1014.6 |
| 20260505020834 | 19 | 134 | 1.6 | 3.2 | 0.00 | 0.00 | 0.00 | 56 | 1014.5 |
| 20260505020330 | 19 | 144 | 3.2 | 9.7 | 0.00 | 0.00 | 0.00 | 55 | 1014.6 |
| 20260505015827 | 20 | 115 | 3.2 | 4.8 | 0.00 | 0.00 | 0.00 | 53 | 1014.2 |
| 20260505015324 | 19 | 142 | 1.6 | 9.7 | 0.00 | 0.00 | 0.00 | 54 | 1014.3 |
| 20260505014821 | 20 | 116 | 4.8 | 6.4 | 0.00 | 0.00 | 0.00 | 52 | 1014.5 |
| 20260505014318 | 19 | 131 | 1.6 | 3.2 | 0.00 | 0.00 | 0.00 | 50 | 1014.1 |
| 20260505013815 | 20 | 142 | 3.2 | 4.8 | 0.00 | 0.00 | 0.00 | 51 | 1014.4 |
| 20260505013312 | 20 | 145 | 0.0 | 1.6 | 0.00 | 0.00 | 0.00 | 49 | 1014.1 |
| 20260505012810 | 20 | 123 | 1.6 | 11.3 | 0.00 | 0.00 | 0.00 | 46 | 1014.1 |
| 20260505012308 | 19 | 117 | 6.4 | 11.3 | 0.00 | 0.00 | 0.00 | 44 | 1013.9 |
| 20260505011803 | 18 | 135 | 1.6 | 4.8 | 0.00 | 0.00 | 0.00 | 47 | 1013.8 |
| 20260505011301 | 18 | 129 | 1.6 | 3.2 | 0.00 | 0.00 | 0.00 | 51 | 1013.9 |
| 20260505010756 | 18 | 112 | 0.0 | 0.0 | 0.00 | 0.00 | 0.00 | 47 | 1013.7 |
| 20260505010252 | 19 | 112 | 0.0 | 0.0 | 0.00 | 0.00 | 0.00 | 46 | 1013.5 |
| 20260505005749 | 20 | 112 | 0.0 | 0.0 | 0.00 | 0.00 | 0.00 | 44 | 1013.5 |
| 20260505005246 | 20 | 112 | 0.0 | 1.6 | 0.00 | 0.00 | 0.00 | 44 | 1013.5 |
| 20260505004743 | 20 | 102 | 3.2 | 3.2 | 0.00 | 0.00 | 0.00 | 42 | 1013.3 |
| 20260505004239 | 20 | 115 | 0.0 | 0.0 | 0.00 | 0.00 | 0.00 | 44 | 1013.2 |
| 20260505003737 | 20 | 115 | 0.0 | 1.6 | 0.00 | 0.00 | 0.00 | 44 | 1013.1 |
| 20260505003234 | 19 | 112 | 0.0 | 3.2 | 0.00 | 0.00 | 0.00 | 44 | 1013.2 |
| 20260505002730 | 19 | 127 | 0.0 | 0.0 | 0.00 | 0.00 | 0.00 | 46 | 1013.2 |
| 20260505002228 | 20 | 128 | 0.0 | 0.0 | 0.00 | 0.00 | 0.00 | 44 | 1013.1 |
| 20260505001725 | 20 | 127 | 0.0 | 0.0 | 0.00 | 0.00 | 0.00 | 42 | 1013.1 |
| 20260505001223 | 20 | 127 | 0.0 | 0.0 | 0.00 | 0.00 | 0.00 | 44 | 1013.0 |
| 20260505000720 | 20 | 127 | 0.0 | 0.0 | 0.00 | 0.00 | 0.00 | 43 | 1013.1 |
| 20260505000218 | 21 | 128 | 0.0 | 0.0 | 0.00 | 0.00 | 0.00 | 40 | 1013.0 |
| 20260504235714 | 21 | 127 | 0.0 | 0.0 | 0.00 | 0.00 | 0.00 | 41 | 1013.0 |
| 20260504235210 | 21 | 127 | 0.0 | 1.6 | 0.00 | 0.00 | 0.00 | 40 | 1013.0 |
| 20260504234707 | 22 | 129 | 0.0 | 0.0 | 0.00 | 0.00 | 0.00 | 38 | 1012.8 |
| 20260504234204 | 22 | 128 | 0.0 | 6.4 | 0.00 | 0.00 | 0.00 | 36 | 1013.0 |
| 20260504233700 | 22 | 136 | 1.6 | 3.2 | 0.00 | 0.00 | 0.00 | 37 | 1012.9 |
| 20260504233156 | 22 | 139 | 0.0 | 0.0 | 0.00 | 0.00 | 0.00 | 37 | 1012.6 |
| 20260504232654 | 22 | 79 | 3.2 | 3.2 | 0.00 | 0.00 | 0.00 | 36 | 1012.5 |
| 20260504232151 | 23 | 138 | 0.0 | 3.2 | 0.00 | 0.00 | 0.00 | 35 | 1012.4 |
| 20260504231648 | 23 | 115 | 1.6 | 4.8 | 0.00 | 0.00 | 0.00 | 34 | 1012.6 |
| 20260504231144 | 23 | 133 | 0.0 | 3.2 | 0.00 | 0.00 | 0.00 | 37 | 1012.4 |
| 20260504230640 | 23 | 110 | 0.0 | 3.2 | 0.00 | 0.00 | 0.00 | 33 | 1012.6 |
| 20260504230139 | 23 | 154 | 1.6 | 3.2 | 0.00 | 0.00 | 0.00 | 37 | 1012.8 |
| 20260504225637 | 23 | 144 | 0.0 | 1.6 | 0.00 | 0.00 | 0.00 | 33 | 1012.5 |
| 20260504225133 | 23 | 123 | 0.0 | 1.6 | 0.00 | 0.00 | 0.00 | 33 | 1012.5 |
| 20260504224630 | 24 | 125 | 3.2 | 4.8 | 0.00 | 0.00 | 0.00 | 30 | 1012.6 |
| 20260504224126 | 25 | 115 | 4.8 | 9.7 | 0.00 | 0.00 | 0.00 | 32 | 1012.5 |
| 20260504223624 | 25 | 138 | 1.6 | 9.7 | 0.00 | 0.00 | 0.00 | 31 | 1012.8 |
| 20260504223119 | 25 | 92 | 3.2 | 3.2 | 0.00 | 0.00 | 0.00 | 30 | 1012.7 |
| 20260504222616 | 25 | 131 | 3.2 | 9.7 | 0.00 | 0.00 | 0.00 | 30 | 1012.8 |
| 20260504222114 | 25 | 145 | 0.0 | 1.6 | 0.00 | 0.00 | 0.00 | 31 | 1012.6 |
| 20260504221611 | 26 | 128 | 0.0 | 1.6 | 0.00 | 0.00 | 0.00 | 30 | 1012.7 |